CST,Max TemperatureF,Mean TemperatureF,Min TemperatureF,Max Dew PointF,MeanDew PointF,Min DewpointF,Max Humidity, Mean Humidity, Min Humidity, Max Sea Level PressureIn, Mean Sea Level PressureIn, Min Sea Level PressureIn, Max VisibilityMiles, Mean VisibilityMiles, Min VisibilityMiles, Max Wind SpeedMPH, Mean Wind SpeedMPH, Max Gust SpeedMPH,PrecipitationIn, CloudCover, Events, WindDirDegrees
2012-1-1,34,30,27,34,26,20,100,82,66,30.06,29.83,29.59,10,8,2,25,11,36,0.03,8,Rain-Snow,293
2012-1-2,20,16,13,10,7,4,73,62,52,30.45,30.30,30.16,10,10,5,22,15,31,0.00,6,Snow,311
2012-1-3,27,14,0,11,3,-3,88,66,36,30.45,30.23,29.93,10,10,10,14,3,21,0.00,0,,183
2012-1-4,35,24,12,21,17,10,90,75,50,30.04,29.99,29.89,10,10,10,13,3,16,0.00,0,,288
2012-1-5,54,34,13,32,22,12,96,73,37,29.97,29.80,29.63,10,10,10,9,1,17,0.00,0,,231
2012-1-6,48,38,29,32,29,27,95,70,48,29.81,29.72,29.62,10,10,10,10,4,17,0.00,1,,254
2012-1-7,37,28,19,28,23,18,93,67,52,30.22,30.03,29.81,10,10,10,18,8,26,0.00,4,,298
2012-1-8,41,26,10,28,19,9,100,83,57,30.32,30.26,30.22,10,10,10,7,1,,0.00,0,,241
2012-1-9,44,36,26,28,27,23,93,69,49,30.15,29.97,29.86,10,10,10,13,6,24,0.00,1,,233
2012-1-10,51,33,15,32,24,14,100,77,44,29.99,29.90,29.77,10,10,10,10,1,17,0.00,0,,222
2012-1-11,46,34,21,32,27,21,100,82,53,29.68,29.63,29.57,10,10,10,17,3,24,0.00,2,Snow,300
2012-1-12,21,18,14,19,12,9,93,84,79,29.69,29.66,29.61,7,2,1,17,11,25,0.04,8,Snow,314
2012-1-13,17,16,14,10,10,9,86,79,73,30.02,29.90,29.73,10,9,2,17,9,26,0.00,8,Snow,300
2012-1-14,19,14,10,10,7,3,86,75,49,30.15,30.08,30.00,10,10,5,7,0,,0.00,7,Snow,208
2012-1-15,35,24,12,27,20,10,100,77,56,30.19,30.05,29.85,10,10,5,14,4,20,0.00,2,,148
2012-1-16,37,28,19,28,25,19,100,85,70,29.82,29.76,29.71,10,9,4,9,3,,0.00,1,,10
2012-1-17,30,13,-4,23,11,-8,93,79,62,30.25,30.03,29.79,10,8,1,17,9,26,0.00,4,Snow,323
2012-1-18,23,4,-14,9,-6,-18,92,69,43,30.25,30.07,29.78,10,10,10,16,3,22,0.00,1,,190
2012-1-19,14,0,-14,5,-14,-22,77,57,30,30.19,30.07,29.80,10,10,10,21,11,31,0.00,0,,296
2012-1-20,8,-5,-18,1,-8,-24,85,79,70,30.21,30.18,30.15,10,6,0,7,0,,0.05,5,Snow,72
2012-1-21,21,0,-20,12,-9,-26,92,69,33,30.26,30.20,30.05,10,9,2,13,1,16,0.00,1,,162
2012-1-22,30,24,19,30,21,14,100,87,68,29.95,29.73,29.57,10,6,2,15,8,20,0.00,7,,127
2012-1-23,32,29,26,32,26,21,100,89,74,29.80,29.52,29.36,10,7,1,14,7,24,0.07,8,Snow,292
2012-1-24,28,24,19,19,19,16,86,81,64,30.31,30.13,29.88,10,10,10,10,7,,0.00,6,,267
2012-1-25,32,26,19,25,22,18,93,82,69,30.35,30.18,29.99,10,9,7,9,2,18,0.00,6,,156
2012-1-26,35,32,28,32,30,27,100,93,86,29.96,29.80,29.67,10,5,2,9,5,,0.00,6,,205
2012-1-27,35,22,8,32,19,7,100,79,44,29.88,29.83,29.73,10,10,3,12,3,18,0.00,4,Snow,215
2012-1-28,30,24,19,23,16,14,86,68,55,29.99,29.94,29.84,10,10,10,16,9,25,0.00,3,,261
2012-1-29,24,17,8,21,12,5,100,73,50,30.18,30.08,29.93,10,9,2,13,3,17,0.00,3,Snow,280
2012-1-30,42,27,12,28,21,9,93,72,53,30.09,29.83,29.72,10,10,10,10,5,,0.00,4,,150
2012-1-31,46,34,23,34,30,21,100,75,57,29.85,29.69,29.63,10,10,10,12,3,17,0.00,0,,238